Retour au catalogue

DELTA 1 DEB

ActifSSO
NORAD 42647·DEBRIS·🇺🇸 United States

Lancé Jun 12, 1975 depuis Vandenberg Space Force Base

Loading…

Prochains Passages (prochaines 24 heures)

TLE

VieillissantSource: Space-Track

Époque: Sep 9, 2026, 03:44 UTC

1 42647U 75052MG  26252.15555699 -.00000005  00000-0  73618-4 0  9999
2 42647  99.7547  38.9398 0066144 100.1746 260.6847 13.32610810 94838

Suivez DELTA 1 DEB en temps réel avec AllMySat

Download on the App Store